COSMOS 397 DEB, 5013

Orbit data source: Space-Track

COSMOS 397 DEB, 5013 is space debris in LEO originally from a launch on Thu, 25 Feb 1971 UTC launched from the Tyuratam Missile And Space Complex (TTMTR). Debris objects in space refer to the collection of defunct objects orbiting the Earth. Examples of debris include non-operational satellites, rocket bodies, and fragments generated from explosions, collisions, or faulty payload assembly.

Loading next visibility...
Identifier
5013, 1971-015G
Orbit
LEO
Country
Flag of CISCIS
Related business
Manufacturer
Unknown
Mission
Spacecraft
Bus & Motor
Unknown
Mass
Unknown
Launch date (UTC)
1971-02-25 (55 years ago)
Launch vehicle
Unknown
Launch site
Tyuratam Missile And Space Complex (TTMTR)
Object type
Payload
Rocket body
Debris
Shape & HBR
Unknown shape, 0.2 m
Radar Cross Section
Small (<0.1 m²)

Expand to show TLE details & history
Last TLE update: 11 hours ago

TLE from 11 hours ago
0 COSMOS 397 DEB
1 05013U 71015G   25349.75131812  .00003551  00000-0  13415-2 0  9994
2 05013  65.8088 119.1430 0848667 180.7414 179.2432 13.17575588580369
Epoch: 2025-12-15T18:01Z
TLE epoch observation values (Epoch: 2025-12-15T18:01:53.885Z)
Latitude
-0.00002°
Longitude
124.02308°
Altitude
1,838.576 km
Speed
6.665 km/s
True Right ascension
07h 56m 34s
True Declination
0° 00' 00"
Sunlit
Object was in full shadow at epoch
Visualization orbit readout
Latitude
Unknown
Longitude
Unknown
Altitude
Unknown
Speed
Unknown
Apparent Right ascension
Unknown
Apparent Declination
Unknown
Sunlit
N/A
Visualization observer readout
Local Sidereal Time
03:12:34
Azimuth
Unknown
Elevation
Unknown
Doppler factor
Unknown
Orbital elements
Apogee altitude
1,835.039 km
Perigee altitude
550.042 km
Semi-major axis
7,570.678 km
Eccentricity
0.08487
Inclination
65.8088°
RAAN
119.143°
Arg. of periapsis
180.7414°
True anomaly
179.35929°
Mean anomaly
179.2432°
Eccentric anomaly
179.3024°
Mean motion
3.29489 °/min
Orbital period
109.26 mins
BSTAR
0.0013415
Loading maneuver chart data...
Computing Atmospheric mass density...

Documentation

Showing up to 5 results
|